Theta_e
290 291 292 293 294 294 293 294 291 293 295 301 304 309 312 313 314 314 315 316 316 317 319 320 321 322 323 324 324 326 327 329 330 330 330 331 332 332 333 333 332 332 331 330
289 292 293 292 295 295 295 296 296 297 298 304 307 311 311 312 313 314 316 316 317 318 319 320 321 321 322 323 324 325 327 327 329 330 329 330 332 331 332 332 331 331 330 330
287 290 292 289 294 295 296 297 297 294 300 305 307 310 313 314 315 315 317 317 318 319 320 321 321 322 322 324 324 324 326 327 328 329 328 330 330 329 331 332 332 331 329 330
286 290 283 295 301 300 298 298 300 300 302 304 305 309 312 318 316 317 318 318 319 320 321 322 323 322 324 324 323 323 325 326 328 328 328 329 328 327 330 332 331 327 326 326
285 288 292 296 297 296 297 297 301 302 305 307 310 310 311 317 319 320 321 321 322 323 323 323 322 323 323 323 323 322 323 325 327 328 327 328 326 325 327 329 329 325 325 324
287 284 285 293 298 301 301 294 300 301 302 304 308 301 307 317 319 320 322 323 322 323 323 323 323 323 322 322 322 322 323 325 326 328 328 327 328 326 327 329 328 330 326 324
286 286 291 297 299 301 293 293 301 301 302 303 303 310 312 315 318 322 322 323 324 323 322 323 323 323 321 321 322 324 324 326 327 329 330 330 330 327 327 327 329 329 328 327
287 286 286 301 298 294 297 301 301 302 303 303 306 309 311 314 318 320 320 321 322 321 322 323 323 322 322 321 324 325 324 325 326 329 328 328 329 326 326 328 327 326 326 326
290 290 297 299 299 302 301 301 302 303 305 305 308 310 313 316 319 317 320 322 322 322 322 321 322 323 322 323 324 323 324 324 326 329 327 327 327 325 323 326 325 324 324 323
291 293 295 298 300 301 302 302 303 305 306 308 308 311 314 317 319 317 320 321 322 322 320 319 322 323 325 324 323 323 323 324 325 327 326 326 327 325 322 322 322 322 323 321
291 294 295 298 298 300 300 303 303 305 306 308 310 311 314 317 319 316 319 320 322 322 322 320 321 322 324 323 323 323 324 324 324 324 325 325 326 324 323 325 320 321 322 323
290 295 293 294 299 300 300 301 304 303 305 308 311 312 315 317 321 316 319 320 321 322 322 321 320 322 323 323 324 325 323 322 322 322 324 325 325 322 298 304 302 300 303 315
295 299 298 299 301 302 300 302 304 304 306 307 311 316 319 320 322 316 319 320 320 322 322 321 320 321 322 322 323 325 325 324 321 318 322 323 324 323 321 312 299 298 298 298
298 300 298 299 298 302 302 302 304 305 306 308 310 316 320 321 320 317 318 320 321 321 321 321 320 321 321 321 323 324 326 308 322 321 320 322 323 323 322 322 321 321 300 305
298 299 299 300 300 302 303 303 303 303 304 306 309 312 317 319 320 320 319 321 322 321 321 320 320 321 322 321 323 323 324 320 323 322 321 318 322 322 322 322 321 322 324 303
297 298 299 299 300 301 301 302 302 303 304 305 306 310 313 319 320 321 322 321 320 320 320 320 320 322 322 321 323 322 322 310 314 321 320 320 320 320 320 321 321 321 322 321
296 294 296 297 299 300 300 302 303 305 304 304 305 308 312 314 320 320 321 323 322 322 322 321 322 323 322 321 323 321 320 317 307 320 320 320 320 320 320 321 320 320 321 320
300 300 300 300 299 300 301 302 304 305 306 306 306 308 310 312 313 319 321 323 323 322 323 323 324 323 322 322 323 322 321 319 316 318 320 320 320 320 320 321 320 320 321 319
302 302 302 303 303 302 303 303 304 306 306 308 308 308 309 313 313 317 322 323 323 323 324 325 306 315 324 320 318 322 320 319 317 319 320 311 318 321 320 320 320 321 321 321
302 303 304 304 305 305 304 305 306 306 306 307 309 308 308 310 313 314 319 322 323 325 326 326 323 323 324 318 306 322 321 320 319 319 319 319 319 320 321 311 320 321 321 321
301 301 302 303 304 306 307 306 305 305 307 307 307 309 308 310 313 314 317 317 321 321 319 311 325 327 324 315 316 323 321 321 320 321 320 319 320 320 322 321 320 321 321 321
302 301 302 303 303 304 307 308 307 306 306 307 308 309 310 310 312 313 317 318 321 292 317 326 326 306 317 295 322 322 321 321 321 322 322 320 320 320 321 321 321 321 321 322
303 303 304 303 302 303 304 306 308 307 307 307 307 308 309 311 313 312 310 317 320 309 319 325 303 290 289 321 324 324 322 319 320 321 321 322 321 321 321 321 321 321 321 322
303 303 302 303 305 303 302 303 305 307 309 309 310 310 310 310 314 319 322 308 296 298 316 319 301 290 288 324 325 325 323 322 320 320 322 307 322 323 322 321 320 322 322 318
303 303 303 303 302 302 303 303 303 303 305 306 310 311 312 313 312 316 318 317 295 302 320 293 290 289 320 327 325 323 321 320 320 320 322 323 322 322 323 323 324 323 322 322
303 303 304 304 303 305 304 303 300 301 300 299 302 307 311 313 314 312 314 306 317 307 320 323 324 323 328 325 326 323 324 319 314 313 319 323 322 321 321 322 322 320 321 320
303 297 303 302 304 304 305 303 301 299 299 298 297 303 308 311 312 309 303 315 317 318 321 323 323 316 324 327 324 323 320 317 309 319 319 319 318 320 318 315 314 316 315 315
Wind_Speed
13 13 9 3 24 22 24 19 15 11 24 21 14 9 1 8 12 15 16 17 18 17 15 15 13 12 10 8 9 8 8 7 6 6 5 6 6 5 6 7 7 7 8 9
10 8 9 8 8 23 23 22 14 8 17 17 13 4 4 11 15 17 17 18 18 18 17 15 14 13 11 10 10 9 8 7 7 6 6 7 6 6 6 8 8 8 7 8
15 4 4 9 13 11 17 23 20 18 16 1 4 7 7 12 17 18 18 20 20 20 17 15 15 13 13 11 10 10 9 8 7 7 7 8 7 7 7 8 7 7 6 8
3 2 9 4 12 13 13 5 15 20 18 15 18 18 10 12 17 18 18 19 19 17 16 15 14 14 13 12 11 11 10 9 9 8 8 7 7 7 7 7 7 6 5 6
3 6 2 4 11 6 4 6 11 8 11 14 13 11 13 13 17 19 22 19 18 18 17 15 15 14 14 13 12 12 12 11 10 10 9 8 8 7 6 7 6 5 6 7
2 4 11 7 13 5 2 7 13 11 11 12 12 10 13 10 13 15 14 17 18 18 16 16 15 15 15 14 13 13 13 12 11 10 10 8 8 8 6 7 8 8 9 7
6 3 1 15 13 3 10 5 14 12 11 12 8 11 16 17 15 12 15 20 19 19 18 17 17 16 16 15 15 14 13 12 12 11 10 9 8 6 8 9 9 9 10 8
4 5 4 17 4 4 7 9 12 13 11 13 15 19 17 16 12 8 15 20 20 18 17 17 17 17 17 17 15 13 14 14 13 11 8 8 9 8 8 9 10 9 9 8
3 4 9 9 0 8 7 10 12 14 15 14 16 17 16 14 12 10 16 17 18 19 18 17 18 18 18 17 16 14 14 14 13 12 10 9 9 9 8 7 8 8 8 7
3 3 11 8 8 10 12 14 14 15 15 14 15 17 16 14 11 11 14 17 17 19 19 18 19 19 18 18 18 17 15 15 13 13 12 10 8 8 8 8 7 7 7 8
3 4 10 5 12 15 18 16 18 18 17 14 16 16 15 13 13 12 13 16 17 18 18 21 20 19 18 19 18 16 15 14 13 12 12 11 9 9 8 9 8 8 7 7
3 5 5 13 15 19 17 20 19 20 21 18 16 17 16 14 12 12 14 16 17 17 16 18 20 20 19 20 20 17 15 13 13 12 11 11 10 7 6 3 9 4 6 8
6 11 14 17 15 14 16 20 18 19 18 19 18 15 14 14 13 11 13 17 18 20 21 20 20 21 20 20 20 19 16 14 12 13 12 11 11 11 10 3 4 6 7 8
11 11 9 8 12 18 17 17 18 17 16 17 18 16 15 14 12 11 16 19 18 18 18 18 21 22 21 21 20 19 17 16 14 14 13 12 12 11 10 10 10 9 7 8
9 9 12 16 17 15 14 14 17 16 18 19 18 18 16 15 12 9 11 12 14 16 17 17 18 19 21 21 20 19 16 14 14 13 13 13 12 12 11 11 11 10 8 5
14 14 15 13 16 16 14 15 15 16 17 18 18 19 18 14 11 9 7 11 15 16 19 19 19 19 20 20 19 16 16 15 14 13 13 14 13 13 12 12 11 11 10 11
13 13 13 16 16 18 16 13 14 15 16 16 18 19 17 15 12 11 9 7 11 12 14 17 18 18 20 20 19 14 13 13 12 13 14 14 14 14 13 12 12 12 12 12
12 13 13 16 16 17 18 15 14 15 16 17 16 17 15 15 13 13 11 8 3 5 9 12 14 16 19 20 18 14 13 14 15 15 13 14 14 13 13 13 13 12 12 10
13 13 13 14 14 15 16 15 13 14 15 16 16 15 15 13 11 11 10 6 5 2 3 4 7 14 16 18 18 15 14 15 15 14 13 12 11 13 13 14 14 13 12 11
14 13 11 12 12 12 14 15 14 12 12 12 16 13 13 13 12 9 9 6 6 4 6 5 5 12 14 14 14 13 14 15 16 15 13 13 13 14 14 13 14 14 13 12
14 12 13 13 13 13 12 12 13 12 11 12 13 14 13 13 10 10 7 5 5 5 8 8 3 5 9 11 11 10 11 11 11 11 13 14 13 14 14 15 14 14 13 12
14 11 13 13 13 15 14 11 11 12 11 12 13 13 13 12 9 8 8 8 5 3 6 3 4 3 2 5 12 10 10 10 6 6 8 12 12 12 12 13 13 12 13 13
13 14 15 15 14 10 13 12 11 11 11 11 12 13 11 9 8 5 8 1 3 4 6 5 4 3 5 2 6 8 8 10 12 4 8 11 12 12 12 13 12 12 11 12
13 14 12 11 12 10 15 14 13 11 9 11 12 13 10 9 8 7 7 7 8 5 5 6 6 8 10 10 9 7 1 4 7 4 11 12 15 13 11 11 12 10 10 8
10 11 13 13 11 9 13 12 13 13 13 12 13 12 12 8 9 9 7 6 4 6 5 8 7 10 9 7 6 5 4 4 5 5 8 15 16 13 11 10 10 10 10 10
10 9 10 12 9 9 10 9 7 8 9 9 10 11 10 9 8 10 10 9 9 5 7 6 4 8 7 7 10 12 10 11 10 7 13 13 11 6 8 10 9 9 8 7
7 5 8 9 8 10 10 10 9 10 10 11 12 10 9 10 11 9 9 10 8 7 6 6 5 6 7 5 3 2 2 3 7 5 3 7 4 7 8 7 5 5 5 6
Wind_Direction
291 278 286 266 200 195 201 210 214 205 225 244 270 308 325 157 162 160 168 170 177 176 177 179 172 175 170 172 169 161 155 168 150 139 120 128 110 110 124 122 124 130 131 123
262 225 247 258 220 214 205 204 217 209 243 236 244 258 183 160 174 173 175 173 179 179 180 178 176 176 171 170 171 164 159 168 148 147 130 130 114 108 114 117 129 133 130 127
222 44 301 256 221 201 215 221 224 236 232 226 223 223 202 173 192 183 176 176 180 182 183 180 177 176 174 172 166 166 163 162 154 146 137 133 119 112 119 125 127 131 133 134
276 249 224 67 35 198 202 218 229 242 257 258 259 266 256 199 202 189 180 177 180 180 181 183 173 179 172 167 171 169 168 166 161 156 143 140 127 115 123 120 115 108 125 127
240 218 351 56 26 346 246 131 16 336 314 300 320 316 265 216 199 214 181 180 176 176 176 174 174 176 171 172 173 175 174 173 171 164 157 155 135 127 122 133 122 108 115 118
267 214 210 30 341 350 201 172 3 352 333 328 337 245 259 9 225 195 189 173 169 170 171 173 176 172 172 175 178 182 180 177 175 176 166 164 142 133 120 134 122 118 111 109
235 277 94 353 333 198 193 35 338 338 326 317 288 275 324 315 333 221 186 172 163 166 174 179 170 173 178 176 188 184 179 176 176 178 177 165 150 138 130 134 129 126 118 125
216 229 167 2 5 71 352 327 331 332 322 311 298 292 297 299 298 248 189 170 171 168 175 174 174 175 180 183 186 178 176 177 177 177 181 167 159 144 137 138 137 136 134 136
313 24 341 342 92 33 357 336 337 326 325 315 306 300 300 293 286 265 204 189 175 169 171 173 179 182 182 186 176 176 176 179 178 174 176 173 166 155 151 153 149 151 151 145
296 30 338 70 45 4 351 339 332 335 327 321 313 306 300 292 277 244 202 189 187 169 174 177 183 188 187 175 176 175 177 180 177 178 176 176 177 171 168 173 168 167 160 151
279 351 328 244 345 335 334 334 339 336 335 334 326 310 303 292 280 239 204 186 182 186 180 182 179 189 182 176 175 178 177 176 180 184 184 177 185 185 187 188 186 178 177 167
344 341 294 288 313 325 324 329 330 333 332 339 339 317 308 292 280 248 202 188 184 197 182 177 182 184 185 181 175 171 177 178 180 184 187 186 181 177 46 358 190 195 175 183
289 307 291 281 291 301 320 321 325 328 331 335 343 329 315 302 285 261 214 192 192 189 191 174 181 184 184 185 179 176 179 177 175 181 187 189 191 194 192 152 194 201 191 204
296 298 300 329 310 314 310 318 322 324 338 339 344 342 335 323 306 250 215 203 194 187 190 186 178 187 183 185 182 180 180 171 176 184 186 189 192 196 201 198 199 200 207 209
321 320 302 303 300 300 314 321 328 332 338 340 341 351 349 344 339 319 243 215 193 186 188 187 192 188 180 184 184 181 180 179 185 182 186 189 191 197 200 201 204 204 187 178
309 311 309 300 300 302 317 322 325 324 331 336 337 342 347 347 347 348 309 203 185 189 186 187 192 188 183 182 181 180 184 178 183 181 180 187 194 199 201 204 204 204 199 206
298 302 301 301 310 309 308 310 310 315 320 329 333 332 335 347 357 9 3 335 232 208 197 189 189 178 181 181 180 181 185 177 188 186 188 190 194 201 205 207 209 210 210 205
287 281 284 283 289 297 302 302 306 310 316 321 324 329 329 340 349 351 356 356 321 215 203 195 182 178 181 179 180 180 183 180 188 198 193 197 198 197 200 206 213 214 217 208
319 289 283 282 283 285 289 295 297 303 310 322 322 325 321 324 336 342 346 3 26 98 42 247 180 176 182 183 180 180 182 181 188 197 199 197 195 201 204 206 209 213 216 211
340 350 311 304 297 289 288 288 291 294 305 320 322 314 317 320 330 334 346 351 2 350 322 329 222 197 193 179 193 188 182 186 188 193 198 200 205 209 210 211 212 212 214 217
327 334 337 334 327 314 299 294 294 291 300 303 305 306 299 300 310 323 322 336 10 354 314 303 313 206 193 168 184 190 186 183 198 200 198 205 203 208 212 214 212 216 215 214
338 345 344 340 346 344 323 306 293 287 285 287 296 299 298 290 288 308 308 281 319 2 320 262 235 172 156 171 181 184 178 156 169 224 233 221 216 209 214 213 217 211 214 216
345 352 352 351 340 341 348 349 320 307 298 291 290 291 295 298 291 284 291 333 309 322 298 243 198 235 314 144 173 173 180 174 141 177 254 249 232 228 216 223 216 215 212 216
346 356 352 345 339 351 2 351 339 332 309 300 287 282 287 291 281 257 251 255 254 243 249 248 210 209 214 211 196 202 229 60 115 153 252 246 243 232 223 213 215 213 213 204
341 347 346 356 348 346 359 346 349 352 343 329 306 293 278 264 259 272 286 288 253 267 273 180 223 232 202 172 164 147 150 150 196 186 241 246 230 223 218 207 204 197 199 195
346 342 341 348 345 346 360 354 338 343 350 334 316 298 291 284 274 271 274 268 271 263 265 264 242 240 201 196 176 157 163 163 174 181 205 225 231 215 220 219 212 199 200 181
354 352 351 351 343 343 350 347 354 353 345 331 313 294 284 288 273 262 267 266 251 246 254 266 280 290 292 220 164 90 53 92 74 54 298 241 225 210 199 188 180 191 187 179